Weather WX

World > North America > United States > New Jersey

Quakertown, New Jersey Regional Weather

Lat: 40.57N, Lon: 74.94W
Wx Zone: NJZ009
Warning FLW WEATHER ALERT - (More Info. Click Here) Warning
Feedback

Quakertown, NJ Regional Weather

Expires:201907170300;;758525
ASUS41 KPHI 170212
RWRPHI

REGIONAL WEATHER ROUNDUP
NATIONAL WEATHER SERVICE MOUNT HOLLY NJ
1000 PM EDT TUE JUL 16 2019

NOTE:  "FAIR" INDICATES FEW OR NO CLOUDS BELOW 12,000 FEET WITH NO
SIGNIFICANT WEATHER AND/OR OBSTRUCTIONS TO VISIBILITY.

 * = STATION DOES NOT REPORT PRECIPITATION (E.G. RAIN, SNOW, ETC.) 
        OR FOG.


NJZ001>014-170300-
NORTHERN NEW JERSEY
  
CITY           SKY/WX    TMP DP  RH WIND       PRES   REMARKS
SUSSEX         FAIR      76  68  76 CALM      30.04R                  
ANDOVER*         N/A     75  70  84 CALM      30.05R                  
MORRISTOWN     PTCLDY    75  72  88 CALM      30.02R                  
NEWARK         MOCLDY    86  69  56 S10       30.01R HX  90           
TETERBORO      FAIR      88  66  48 SW8       29.99R HX  90           
CALDWELL       FAIR      85  69  58 SW3       30.01R                  
SOMERVILLE     FAIR      78  71  79 CALM      30.01R                  
ALLAIRE*       FAIR      79  69  71 S8        30.05R                  
TOMS RIVER*    FAIR      78  77  96 S7        30.05R                  

$$

SKY/WX - Weather  TMP - Temperature  DP - Dew Point  RH - Relative Humidity
WIND - Wind Direction/Speed PRES - Barometric Pressure VSB - Visibility
WCI - Wind Chill Index E13G22 Wind - East Wind 13 mph/Gusts of 22 mph